RH
98 98 97 96 96 96 96 95 95 96 96 96 96 96 96 95 95 95 95 94 95 97 99 99 100 100 100 100 100 100 99 98 96 93 91 88 86 84 82 83 84 87 91 95 96 97 97 97 98 99 99 100 100 100 100 100 100 100 100 100 100 100 100 100 100 100 99 99 99 99 98 99 99 99 99 100 100 99 99 98 96 95 94 95 95 95
97 96 95 95 94 95 95 94 94 95 96 96 95 95 95 95 95 95 94 93 94 95 97 99 99 100 100 100 100 100 100 100 99 99 98 96 93 90 87 86 85 85 86 89 93 96 97 97 97 96 97 98 99 99 99 100 100 100 100 100 100 100 100 100 100 100 99 99 98 98 97 97 97 98 98 99 99 100 100 100 99 99 98 97 96 95
97 96 95 93 92 93 94 92 92 92 94 94 94 93 93 94 94 94 94 93 93 93 95 96 98 99 100 100 100 100 100 100 100 100 100 99 98 97 95 93 91 89 87 88 90 94 97 99 99 98 98 97 97 97 97 98 98 99 99 99 100 100 100 100 100 100 100 100 99 99 98 98 97 97 98 98 99 99 100 100 100 100 100 99 98 97
98 97 95 93 91 90 90 89 89 89 89 90 90 90 90 92 92 92 91 90 90 90 91 93 95 97 99 100 100 100 100 100 100 100 100 100 100 99 99 98 96 95 93 91 91 92 95 98 99 99 99 99 98 97 97 96 96 96 96 97 97 98 98 99 99 99 99 99 99 100 99 99 99 99 99 99 99 99 99 99 100 100 100 99 99 99
97 96 94 91 90 88 86 85 85 84 84 85 86 87 88 89 89 89 87 86 86 86 87 88 90 92 95 97 99 100 100 100 100 100 100 100 100 100 100 100 99 99 98 96 95 95 95 97 98 99 100 100 99 99 99 98 97 96 95 94 94 94 94 95 95 95 96 96 96 97 96 96 96 96 97 97 97 98 98 99 99 99 100 99 99 99
95 93 90 88 87 86 84 83 82 81 80 81 82 83 85 86 86 86 85 84 83 83 82 83 83 85 87 90 93 96 97 99 99 100 100 100 100 100 100 99 99 99 100 99 99 99 98 99 99 99 100 100 100 100 99 99 98 97 96 95 94 94 93 93 92 92 91 91 91 91 91 91 91 91 92 92 94 95 95 97 98 98 99 99 99 99
91 88 85 83 83 82 82 82 81 80 79 81 82 83 83 83 83 84 84 83 83 82 81 79 78 78 79 81 84 86 88 92 95 97 99 99 100 100 100 99 99 99 99 100 100 100 100 100 99 99 99 99 99 100 100 100 99 98 98 97 96 96 96 95 94 93 92 91 91 90 90 89 89 90 90 90 91 93 94 95 97 98 99 99 99 99
86 83 79 78 77 77 78 78 79 78 78 80 82 84 86 85 84 84 82 80 79 78 78 78 77 76 77 76 76 77 78 81 85 88 91 94 97 98 99 98 98 98 97 98 98 99 100 99 99 99 99 99 99 99 99 100 100 99 99 99 99 99 99 98 98 97 96 95 95 94 93 93 93 93 93 93 93 94 95 96 98 99 100 100 100 100
80 78 75 72 71 71 71 72 72 73 74 76 79 82 84 83 82 80 78 75 73 72 71 73 74 76 78 78 77 76 75 76 78 80 82 84 87 90 92 95 96 95 94 94 94 95 96 97 98 98 97 98 99 99 99 99 99 99 100 100 99 99 100 100 99 99 99 99 99 98 97 96 96 95 95 95 95 96 97 98 98 99 99 99 99 99
74 71 69 67 65 64 62 63 64 65 66 70 74 77 78 78 77 75 72 70 68 65 63 64 66 69 73 77 79 80 80 79 78 78 78 79 79 81 83 87 90 91 91 90 90 90 90 90 91 92 92 93 94 94 95 96 97 98 99 99 99 99 99 99 99 99 99 99 99 99 99 98 97 96 95 96 96 97 98 98 98 98 98 98 98 97
68 63 60 59 58 57 56 58 58 59 60 64 68 72 74 74 73 72 72 71 67 64 61 60 61 63 66 70 75 79 83 84 83 82 81 80 81 81 82 85 88 91 92 92 92 90 87 85 84 84 86 87 88 89 89 90 91 93 95 97 99 99 100 100 99 99 99 99 99 99 98 97 95 94 93 93 93 93 93 94 94 94 94 95 94 93
61 57 54 53 51 51 53 54 55 56 58 61 64 68 70 71 71 71 72 71 69 66 63 61 61 61 63 65 68 72 76 78 81 82 83 84 84 85 86 88 90 93 95 97 97 96 94 90 87 86 87 88 89 89 88 88 89 90 91 93 94 96 97 98 99 99 99 99 98 98 97 95 92 90 88 87 86 86 85 85 84 85 86 87 87 87
57 53 50 48 48 49 49 49 50 53 55 58 62 66 70 71 71 70 70 69 67 65 63 63 62 62 62 63 64 65 66 66 68 70 72 73 74 76 78 80 82 85 87 90 93 95 96 95 95 94 94 95 95 95 95 95 94 93 91 91 90 90 91 93 94 94 95 94 94 93 91 89 87 84 81 82 81 80 76 73 72 73 75 77 78 79
54 50 47 48 49 49 48 47 49 52 55 59 63 66 69 70 70 69 68 67 64 62 61 63 64 64 63 63 62 62 61 59 58 58 58 59 60 61 62 63 64 65 66 70 73 77 81 84 87 90 91 94 95 96 96 97 97 95 93 92 90 88 87 88 87 86 86 87 86 85 85 82 80 78 77 78 78 75 68 62 59 59 59 62 65 69
51 47 45 48 50 50 49 48 50 53 56 61 64 67 69 69 68 66 65 64 62 60 59 60 61 63 65 64 63 61 59 57 56 55 54 54 53 52 53 53 52 51 51 56 58 60 61 63 65 68 71 75 79 82 85 87 87 87 87 86 86 85 85 85 83 81 81 81 80 79 79 78 77 75 73 74 71 67 62 56 51 48 45 46 49 53
49 45 45 49 51 51 49 48 51 54 56 59 62 63 63 63 62 59 58 57 56 56 57 56 56 59 63 66 65 62 59 57 57 56 55 54 53 51 50 51 50 50 52 58 62 64 63 62 61 60 61 62 64 66 70 73 75 76 78 79 81 82 83 83 82 80 79 78 78 78 77 77 76 75 74 72 70 67 63 59 54 49 45 44 44 46
49 47 48 52 54 54 51 50 51 53 53 54 55 55 54 54 53 52 49 48 49 52 57 58 61 64 66 63 65 65 61 60 59 57 56 56 54 52 51 53 55 57 61 68 74 78 79 77 73 69 65 64 62 62 64 67 69 71 73 76 78 80 82 82 82 82 82 81 80 79 78 77 76 75 73 71 69 67 64 60 56 53 50 49 49 52
51 50 50 52 53 54 53 53 52 51 49 50 50 51 52 51 50 48 46 46 49 55 62 69 74 78 79 67 67 70 64 61 60 58 58 58 56 53 51 54 57 62 68 76 83 88 90 90 88 82 74 71 68 66 67 68 70 71 73 76 78 80 81 82 83 83 83 82 82 81 79 78 75 73 71 69 67 64 61 58 54 52 51 52 55 60
52 51 50 50 52 52 50 48 47 47 48 49 51 53 55 56 55 54 53 52 53 57 64 72 77 78 75 68 69 71 67 61 58 57 59 60 58 55 52 54 58 63 70 78 85 89 92 93 93 90 82 77 73 71 70 71 72 73 75 77 78 80 81 82 82 82 82 81 81 80 79 78 76 74 72 69 66 62 59 56 55 55 56 61 65 68
51 51 51 52 53 53 50 46 44 43 44 45 48 51 55 57 59 61 63 62 60 59 59 64 68 69 66 65 65 66 66 62 57 55 58 60 60 57 54 54 58 63 69 76 82 86 88 89 90 90 86 81 78 75 72 71 71 71 72 73 75 76 77 78 78 79 79 78 77 76 75 73 71 69 66 63 62 61 59 59 62 66 67 70 73 77
50 52 51 52 53 53 53 50 47 45 44 43 45 47 51 54 58 62 66 65 63 61 59 61 62 62 61 61 60 60 61 60 58 56 55 59 61 60 57 56 57 60 64 70 76 80 84 85 87 90 91 86 82 79 75 72 70 68 67 67 68 69 69 70 71 71 71 70 68 67 65 64 64 63 61 61 62 63 65 69 73 76 78 79 81 83
50 54 56 55 53 52 53 53 52 50 48 45 45 46 47 50 56 61 64 64 63 61 60 62 63 63 61 60 59 58 57 56 57 56 52 59 63 63 59 58 58 59 60 63 67 71 76 79 82 86 90 88 85 80 77 75 72 70 67 66 65 65 64 65 65 65 65 64 65 65 66 67 69 70 69 70 72 74 75 78 80 82 83 84 84 85
52 54 56 55 54 54 56 57 58 56 53 49 46 45 45 47 51 55 58 62 63 63 63 65 65 64 63 62 60 58 57 55 56 55 51 58 65 67 61 59 59 60 61 61 62 63 66 70 73 77 81 85 84 81 78 77 75 73 71 70 68 67 67 67 67 67 69 71 72 74 78 80 81 80 79 79 80 81 82 83 84 84 85 85 85 84
57 58 59 60 61 62 63 63 62 59 55 50 47 46 47 49 51 53 56 59 63 65 66 64 63 63 64 62 59 58 58 55 53 53 53 62 68 71 65 61 59 59 61 62 62 63 64 66 69 72 73 76 78 78 74 74 74 75 77 77 75 74 74 73 72 72 72 75 77 79 83 84 84 84 83 83 84 84 85 85 85 85 85 85 84 82
69 70 71 72 72 71 69 66 62 58 55 52 51 52 54 55 55 56 56 57 59 61 63 63 63 63 64 61 59 59 61 58 55 53 55 63 70 71 69 65 62 59 58 61 63 64 66 67 70 71 71 69 69 69 68 68 70 73 76 77 78 80 81 78 76 75 74 75 78 81 83 84 85 85 85 85 85 86 85 85 84 84 84 83 81 78
84 86 87 86 83 80 75 70 66 63 62 61 62 63 64 63 59 55 50 51 53 55 57 59 63 67 67 64 64 65 66 63 60 58 58 64 69 71 71 68 65 60 56 59 62 64 66 66 67 68 68 66 66 66 65 64 66 69 72 75 79 82 82 80 79 77 76 76 77 79 81 84 85 85 85 85 85 85 84 84 84 83 83 79 75 71
90 92 93 91 89 87 84 81 78 76 74 74 74 73 70 67 61 54 49 52 53 53 54 60 70 77 72 70 71 71 70 67 66 66 65 66 69 72 75 71 67 62 55 57 60 64 67 67 66 66 66 67 67 66 65 63 63 64 67 71 76 79 79 78 76 76 75 76 78 80 82 85 86 86 86 84 84 83 83 83 83 82 79 75 71 68
80 80 80 81 82 84 85 87 87 84 80 78 76 73 70 64 59 56 59 60 59 58 59 64 74 81 77 76 76 75 71 70 70 70 69 68 70 74 78 73 69 63 57 56 61 66 70 69 68 67 67 68 67 66 64 63 62 63 64 67 71 74 76 75 74 75 76 79 81 83 85 87 87 87 86 85 84 84 83 85 84 81 78 74 71 70
74 76 78 80 81 82 82 82 81 80 78 76 73 70 68 63 61 62 67 67 65 65 67 69 73 76 76 77 77 76 72 73 73 73 70 70 74 79 80 75 71 66 60 57 60 65 72 71 70 69 69 69 67 65 63 62 62 63 65 67 69 71 73 73 74 75 77 80 83 85 86 87 87 86 85 84 84 84 86 88 87 83 78 76 74 73
79 80 80 82 82 81 80 79 78 76 75 73 71 70 68 65 65 68 71 70 69 69 73 74 74 74 74 74 75 76 78 78 77 76 73 74 79 82 81 78 76 73 67 63 64 67 70 70 70 71 70 69 66 64 63 63 63 64 66 68 70 71 72 73 74 75 77 80 82 84 85 84 84 83 83 82 83 84 86 90 89 85 80 77 75 74
79 80 80 79 79 78 77 77 76 75 74 72 71 70 70 69 69 70 72 70 69 70 73 74 75 75 74 71 73 78 86 82 81 80 77 78 81 84 83 81 80 79 77 74 76 76 70 69 68 68 67 65 63 62 63 65 66 66 67 67 69 71 74 74 75 76 77 79 80 81 81 80 80 80 80 80 81 83 86 90 91 87 80 75 72 70
76 76 77 76 76 76 75 75 75 74 73 73 72 72 72 72 72 72 72 71 70 70 71 73 75 76 76 75 78 83 88 85 83 82 80 81 82 84 83 82 82 82 83 81 80 79 77 77 71 66 65 64 63 63 65 68 69 69 69 67 69 71 75 76 76 77 78 79 79 80 79 79 78 77 76 77 79 82 86 89 90 87 79 73 69 67
74 74 75 75 75 75 74 74 74 73 73 73 74 74 74 74 74 74 74 74 73 72 71 72 74 76 78 80 83 86 85 84 83 83 82 82 82 83 83 82 82 82 83 84 83 83 83 82 79 76 75 74 72 70 69 71 72 72 72 70 70 73 76 76 76 77 78 78 79 79 79 78 77 76 75 75 77 79 82 84 84 81 77 72 69 67
73 74 74 74 74 74 74 74 74 74 74 75 75 75 75 75 75 76 76 76 76 75 75 74 75 76 77 80 81 82 82 82 83 83 83 82 82 82 82 82 82 82 83 84 85 85 84 83 84 84 85 83 78 75 73 75 76 76 74 74 74 75 76 76 75 76 77 77 78 78 78 77 76 75 74 73 74 75 76 76 75 75 75 73 71 70
74 74 74 74 75 75 75 75 75 75 76 76 76 76 76 77 77 77 77 78 78 78 78 78 78 78 78 79 80 80 81 81 82 83 83 82 82 82 82 82 83 83 83 85 85 85 85 85 86 86 87 85 81 77 76 78 79 79 76 76 76 77 77 76 75 75 76 76 76 76 75 74 73 73 72 72 72 72 72 72 72 72 73 74 74 73
77 75 75 75 75 76 76 76 77 77 77 78 78 78 78 78 78 78 79 79 79 80 80 81 81 81 82 82 81 81 82 83 83 83 83 83 83 83 82 83 83 84 84 85 86 86 86 86 86 86 86 85 82 79 79 82 82 80 77 77 77 77 78 77 76 76 75 75 75 75 74 73 72 71 71 71 71 71 72 72 71 71 72 73 74 74
84 82 81 80 79 79 78 78 78 79 79 79 79 79 80 80 80 80 80 80 80 81 81 82 82 82 83 83 84 84 84 84 84 84 84 84 85 85 84 84 84 84 85 85 86 86 86 86 86 85 85 84 82 82 82 85 85 85 84 80 78 77 76 76 77 77 76 75 75 74 73 72 72 72 71 71 71 71 71 71 71 71 71 71 72 72
90 88 87 86 85 83 82 81 81 80 80 81 81 81 81 80 80 80 80 80 81 81 82 83 83 83 84 84 84 85 85 85 85 85 85 85 86 86 86 86 85 84 85 86 87 87 86 86 86 86 85 83 82 83 85 86 87 87 88 83 78 75 74 74 75 76 76 76 75 74 74 73 72 71 71 70 69 69 68 69 70 70 70 69 69 69
90 89 89 87 86 85 84 83 82 81 81 81 81 81 81 81 81 81 81 81 81 82 82 83 84 84 84 85 85 85 86 86 86 86 87 87 87 87 87 86 85 84 84 86 86 86 87 87 88 87 86 84 84 84 86 87 87 89 91 86 78 72 69 70 72 74 76 75 74 73 73 72 72 71 70 70 69 68 67 67 68 68 68 66 65 65
88 88 87 86 86 85 84 83 82 82 81 81 82 82 82 81 81 81 81 82 82 82 83 83 83 84 84 84 85 85 87 87 88 88 88 88 88 88 87 87 86 86 86 86 85 84 85 86 87 87 87 87 87 87 87 87 87 89 91 90 86 78 67 69 71 73 75 75 74 73 72 72 71 71 71 71 70 70 69 68 68 67 67 66 65 63
86 85 85 85 84 84 83 83 82 81 81 82 82 83 83 82 82 81 81 80 80 80 81 81 81 81 82 83 84 85 87 89 89 88 88 88 88 88 89 89 88 86 86 85 83 82 82 82 83 85 86 87 88 88 88 88 88 89 90 91 91 88 79 73 72 73 74 75 75 74 74 73 73 72 72 71 71 71 72 70 69 68 67 67 68 68
86 86 85 85 84 84 83 83 82 81 81 83 84 84 84 83 82 82 81 80 80 81 82 82 83 83 84 84 85 86 88 89 88 87 87 87 88 89 91 90 89 88 87 86 85 84 84 84 85 86 86 87 89 89 88 87 88 89 89 91 92 91 84 75 71 71 74 74 74 75 75 74 74 73 73 72 72 72 72 72 71 70 69 69 70 71
87 87 86 85 85 84 83 83 82 82 82 84 85 85 84 83 82 81 81 81 81 82 83 85 87 88 88 89 88 88 89 89 88 88 89 88 89 89 89 88 88 88 88 87 87 87 87 87 86 85 85 86 88 90 90 89 88 88 88 89 92 93 93 82 75 71 72 73 74 74 75 76 76 76 75 73 73 72 73 72 72 71 70 70 71 72
86 86 86 85 85 84 84 83 83 83 83 84 84 84 83 83 82 81 81 82 82 83 84 86 88 89 88 88 88 87 87 88 88 88 88 87 87 86 86 86 87 87 87 86 85 85 86 85 85 85 84 84 85 87 88 89 89 88 88 89 90 92 92 88 83 79 76 74 74 74 76 78 78 78 76 75 74 74 74 73 71 70 68 69 70 72
84 84 84 85 85 85 85 85 84 83 83 82 82 82 82 82 82 82 82 83 83 83 83 85 87 88 86 86 85 84 83 84 84 84 84 84 84 85 85 85 86 86 85 85 84 84 84 84 85 85 83 84 85 87 88 89 89 89 88 87 87 87 87 85 83 82 80 77 75 75 77 79 80 80 79 78 78 77 77 75 73 71 69 69 71 73
82 83 83 83 83 84 84 84 83 82 81 80 79 79 80 81 83 84 84 84 84 83 81 83 84 85 85 84 83 82 82 82 82 82 81 81 82 82 83 84 84 84 83 83 83 84 85 85 85 85 86 88 91 92 92 91 90 90 88 86 85 85 84 82 80 79 79 78 76 76 78 80 82 83 83 84 83 82 80 78 77 76 74 73 74 77
81 81 82 82 83 83 84 83 82 81 80 79 79 79 80 82 84 85 84 83 82 82 81 82 82 82 82 81 81 81 81 81 81 81 80 80 79 80 81 81 81 81 82 83 84 85 84 83 84 85 88 92 94 94 91 89 88 88 87 85 84 84 84 81 78 76 77 77 77 78 80 82 84 86 87 89 89 88 87 84 82 80 80 80 81 83
82 82 83 84 84 83 82 81 80 79 79 79 80 81 82 83 84 84 82 81 81 81 80 81 81 80 80 80 80 80 80 80 79 79 80 79 79 79 79 79 79 79 79 80 81 80 79 80 81 82 83 88 91 93 89 86 84 83 83 82 83 83 83 79 76 75 76 77 78 80 83 85 87 89 91 93 94 94 94 92 89 87 86 86 87 88
82 82 83 83 82 81 80 79 79 79 79 79 80 81 82 81 82 82 80 79 79 79 79 80 80 80 81 80 79 79 79 79 79 79 79 79 80 80 80 79 78 78 77 78 78 77 78 80 81 82 83 83 85 86 85 82 79 78 78 79 81 82 82 78 76 75 76 78 80 83 86 88 91 93 94 95 95 95 95 95 94 92 90 89 89 89
80 80 81 81 80 80 79 79 79 79 79 79 80 82 83 82 80 78 77 78 78 79 80 81 83 85 87 85 83 81 81 82 83 82 80 81 83 85 86 84 83 83 85 86 83 80 80 80 78 77 75 76 77 78 79 78 78 77 78 78 79 80 80 79 77 76 78 80 83 86 89 91 92 93 94 95 96 95 94 93 92 91 90 89 88 87
80 80 80 79 79 79 79 79 79 80 81 83 86 88 91 91 89 85 82 82 82 82 82 86 89 93 94 93 90 87 86 88 89 88 85 86 89 91 92 91 92 94 96 95 91 87 83 81 78 74 71 72 73 75 77 78 78 79 80 79 78 78 80 79 79 79 81 84 87 90 92 93 93 93 93 95 96 95 92 90 89 88 88 87 87 86
Wind_Speed
11 13 15 17 18 19 20 22 22 22 22 23 23 24 24 25 25 26 26 27 28 28 28 28 28 27 27 27 27 27 28 29 30 31 32 32 32 33 33 33 34 33 33 32 32 31 30 29 28 27 27 26 26 26 26 27 27 28 29 30 31 32 33 34 35 35 35 34 34 34 34 33 33 33 32 30 29 29 29 29 29 29 28 27 26 25
11 12 14 16 17 18 19 20 21 21 21 21 22 23 23 23 24 24 25 26 26 26 26 26 26 26 26 26 25 26 26 27 28 29 29 30 31 31 31 31 31 31 32 31 30 29 28 28 27 27 26 26 25 25 25 26 26 27 28 29 30 30 31 31 32 33 33 32 32 32 32 32 32 32 31 29 28 27 27 27 27 27 27 26 25 24
9 11 13 15 17 17 18 18 19 20 19 19 20 21 22 22 23 23 23 23 23 24 24 24 24 24 25 24 24 24 24 25 25 26 26 27 28 29 29 30 30 30 30 30 29 28 27 26 25 25 25 25 25 25 25 25 26 27 28 29 29 30 30 30 30 31 31 30 30 30 31 31 31 30 30 29 27 26 25 25 25 25 25 24 24 23
8 9 11 14 15 16 16 16 17 17 18 18 18 19 20 20 20 20 20 20 21 21 21 22 22 22 22 22 22 22 22 23 23 24 24 24 25 26 26 27 27 27 28 28 28 27 26 25 24 23 23 23 23 23 23 24 24 25 26 27 28 28 29 29 29 29 29 29 29 29 29 29 29 29 28 28 27 26 25 24 23 23 22 22 21 21
7 8 10 12 13 14 14 15 15 15 15 16 16 17 18 18 18 18 18 18 19 19 20 20 20 20 20 20 20 20 20 20 21 22 22 22 23 23 23 23 23 24 24 24 25 25 24 24 23 22 21 21 21 21 22 22 22 22 23 23 24 24 25 25 26 26 26 26 26 26 26 26 26 26 26 25 25 24 23 23 22 21 20 20 19 19
8 9 10 10 11 11 12 12 13 13 14 14 15 16 16 16 16 16 16 17 18 18 19 19 19 19 19 19 18 18 18 19 19 20 20 21 21 21 21 21 21 21 21 21 21 21 21 21 21 20 20 19 19 19 19 20 20 20 21 21 21 21 21 21 22 22 22 22 22 22 22 23 23 23 23 22 22 22 22 21 20 19 18 18 17 17
8 9 10 9 9 9 10 10 10 10 11 12 13 13 14 14 15 15 15 16 16 17 17 18 19 19 19 19 18 18 18 18 18 18 19 19 19 20 20 20 20 20 19 19 19 19 19 19 19 19 18 18 18 17 17 18 18 19 19 19 19 19 19 19 19 19 19 19 19 19 19 20 20 20 20 20 19 19 19 19 18 17 16 15 15 14
8 8 8 8 8 8 8 8 8 8 9 10 11 11 12 13 13 13 14 14 15 15 15 16 17 18 18 18 18 18 18 18 18 18 18 18 18 18 18 18 19 18 18 18 18 17 17 17 17 17 17 17 16 16 16 16 17 17 17 18 17 17 17 17 17 17 17 17 17 17 17 18 18 18 18 17 17 17 17 16 16 15 14 13 12 11
9 7 7 6 6 6 6 7 7 7 7 8 9 9 9 10 11 12 13 13 14 13 13 13 14 14 15 16 16 16 16 17 17 16 16 16 16 16 17 17 17 17 17 17 17 16 16 16 15 15 15 15 15 15 15 15 15 15 15 15 15 15 15 15 15 16 16 16 16 16 16 16 16 16 16 16 16 16 16 16 15 14 13 12 11 11
8 7 6 5 5 5 5 5 5 6 6 6 7 8 8 8 8 9 11 13 13 13 13 13 12 12 12 13 13 14 14 15 15 15 15 15 15 15 15 16 16 16 16 16 16 15 15 15 14 14 14 14 14 14 14 14 13 13 13 12 12 12 12 12 13 13 14 15 15 15 15 15 15 15 15 15 15 16 16 15 15 14 13 12 12 11
7 7 6 5 4 5 5 4 5 5 5 6 6 7 8 8 7 7 9 11 13 14 14 14 13 12 12 12 12 12 12 13 13 14 14 15 15 15 15 16 16 16 16 15 15 15 14 14 14 13 13 14 14 14 14 14 13 13 12 11 11 11 11 11 12 12 12 13 14 14 15 15 15 15 14 14 14 14 14 14 13 13 13 12 11 11
6 6 5 4 4 4 5 5 5 5 6 6 5 6 6 8 8 8 8 8 11 14 15 15 14 13 13 13 13 13 12 12 13 14 14 15 16 16 17 17 17 17 17 16 15 14 13 13 13 13 13 13 13 13 13 13 13 12 12 12 11 11 11 11 12 12 12 13 13 14 14 15 15 15 14 14 13 12 12 11 11 12 12 11 11 11
7 6 5 6 6 6 6 6 6 6 6 7 7 6 6 7 9 10 9 9 11 13 14 15 14 13 13 13 14 14 14 14 14 15 16 17 17 18 18 18 18 19 18 18 17 16 14 13 12 12 12 12 12 12 12 11 11 11 10 10 10 11 11 11 12 12 12 12 13 13 14 14 14 14 14 14 13 13 12 12 12 12 12 12 12 11
7 7 6 6 6 7 8 8 7 7 8 8 8 8 8 9 9 9 9 8 9 11 13 14 15 14 13 13 14 14 15 15 16 16 17 18 18 18 18 18 19 19 19 19 19 18 17 15 14 13 12 12 11 11 11 10 10 9 9 9 9 10 10 11 11 11 11 11 12 12 13 13 13 13 14 14 13 13 13 13 13 13 13 13 13 12
8 7 7 6 5 6 7 8 8 8 8 8 8 8 8 8 8 6 5 4 4 6 7 10 12 13 13 13 13 14 14 15 16 17 17 17 17 17 17 17 17 17 17 18 18 17 16 15 14 14 13 12 12 11 11 11 10 10 9 9 10 10 10 10 10 10 10 10 10 11 11 12 12 12 12 12 12 12 12 12 12 12 11 12 12 12
9 8 7 6 6 7 8 9 9 8 8 7 7 7 7 6 5 4 4 3 2 2 2 3 5 8 10 11 12 13 13 14 15 16 16 16 16 16 16 16 16 16 16 17 17 16 15 14 13 12 12 11 10 10 10 10 10 10 9 10 10 10 10 10 10 10 9 9 9 9 9 9 10 10 10 10 10 10 10 9 9 9 8 8 8 9
9 9 8 8 8 8 9 9 9 9 8 8 7 7 6 6 5 4 3 3 2 2 1 2 3 3 3 6 8 10 12 12 12 13 15 15 15 14 14 15 16 16 16 16 16 16 15 14 13 12 11 10 9 9 9 9 9 9 9 9 9 9 10 9 9 9 9 9 8 8 8 8 8 8 8 8 7 7 7 7 6 6 6 6 6 6
9 9 9 8 8 8 9 8 8 8 8 8 8 7 7 6 6 6 6 6 6 5 4 3 3 3 2 3 4 6 10 10 10 12 13 14 14 14 13 14 15 15 15 16 15 15 15 15 13 12 10 9 9 8 8 8 8 8 8 8 9 9 9 9 8 8 8 8 7 7 7 6 6 5 5 5 5 4 4 4 4 4 4 4 5 5
10 10 9 8 8 8 8 8 7 7 7 7 8 8 9 9 8 8 9 9 9 9 8 6 4 3 3 3 3 5 7 9 10 11 12 12 12 13 13 13 14 14 14 15 14 14 14 14 13 12 10 9 8 8 8 7 7 7 7 7 7 7 7 7 7 7 6 6 6 5 5 5 4 4 3 3 2 2 2 2 2 2 3 3 4 4
12 10 9 9 9 8 8 7 7 7 6 6 6 7 8 9 9 9 10 10 10 10 11 10 8 6 5 6 6 5 6 8 9 10 10 11 11 12 11 12 13 13 13 13 12 12 12 13 13 12 10 9 8 8 7 7 6 6 6 6 5 5 5 5 5 5 5 4 4 3 3 3 2 2 1 1 1 1 1 1 2 2 3 3 4 4
12 10 9 9 8 7 7 7 7 6 6 5 5 5 6 7 8 9 9 9 9 10 11 11 10 8 8 8 7 6 5 5 6 6 6 7 9 10 10 10 11 11 11 11 10 10 10 11 11 11 11 9 8 7 7 6 5 5 4 4 4 3 3 3 3 3 3 2 2 1 1 1 1 1 1 1 1 1 2 2 3 3 3 4 4 4
11 10 9 9 8 8 8 7 6 5 5 4 4 4 5 5 6 7 7 7 8 9 10 10 10 9 8 8 7 5 4 4 4 4 4 4 6 8 8 8 9 9 9 8 8 7 7 8 9 10 10 9 8 7 6 6 5 5 4 3 3 3 2 2 2 2 2 1 1 1 1 1 1 1 1 2 2 3 3 3 3 4 4 4 4 4
10 11 10 9 8 8 7 6 5 5 4 4 4 4 4 4 5 5 5 5 6 6 7 8 8 8 7 7 6 5 4 4 2 3 4 3 4 6 6 6 7 7 7 6 5 4 4 5 6 7 7 8 7 7 6 5 5 5 5 4 4 3 2 2 2 2 2 2 2 2 2 2 2 2 3 3 3 3 3 4 4 4 3 3 4 4
10 10 9 8 7 6 6 5 5 5 5 4 5 5 5 5 4 5 5 5 4 5 5 6 7 6 6 6 6 6 5 4 3 2 3 4 4 5 5 5 5 6 5 4 3 2 3 4 5 5 6 6 6 6 5 5 5 5 5 5 4 3 3 2 2 1 1 2 2 2 2 2 2 3 3 3 3 3 3 4 4 3 3 3 4 4
9 9 8 7 6 6 5 5 5 5 5 5 5 6 5 5 4 4 4 4 4 4 4 5 5 4 5 5 6 7 6 6 5 4 3 4 4 6 6 5 6 6 5 4 2 1 3 5 5 5 5 5 4 4 4 4 4 4 4 4 4 4 3 2 1 1 1 1 1 2 2 2 2 2 3 3 3 3 3 3 3 3 3 4 4 5
8 8 7 7 6 6 6 5 5 5 5 5 6 6 5 4 3 3 3 4 3 2 3 3 3 4 4 4 6 8 7 7 7 6 4 3 4 5 7 8 8 8 7 4 2 1 4 5 6 5 5 3 3 4 5 4 4 3 3 3 3 4 3 3 2 1 0 0 1 1 2 2 2 2 2 2 2 2 2 2 2 2 3 4 5 5
6 6 6 6 6 6 6 6 6 5 5 5 5 5 5 3 2 2 4 5 4 2 2 3 3 3 4 4 6 7 7 7 8 8 7 4 3 4 8 10 10 10 9 5 2 1 4 5 6 5 4 3 3 5 6 6 5 3 2 2 3 3 3 3 2 1 1 1 1 1 1 1 1 1 1 1 1 1 1 1 1 2 3 4 4 4
4 4 4 4 5 5 5 5 5 5 5 5 5 5 4 3 2 4 5 5 4 4 4 5 4 3 3 3 4 5 6 7 8 9 8 5 3 5 9 11 12 12 11 6 3 1 3 5 5 4 3 2 4 6 7 7 6 4 3 2 2 3 3 2 2 1 1 1 1 1 1 1 1 1 1 1 1 1 0 0 1 3 3 3 3 3
3 2 2 2 3 3 3 3 4 4 5 5 5 5 4 4 5 6 6 5 5 5 6 6 5 4 3 3 3 4 6 7 8 8 9 5 3 5 9 10 12 13 12 8 3 1 2 4 4 3 1 2 5 7 8 8 6 4 3 2 2 2 3 2 2 2 2 2 2 2 1 1 1 1 1 1 1 1 1 1 1 2 2 2 2 1
2 1 1 1 1 1 1 2 3 4 4 5 5 5 5 5 6 7 7 6 5 6 7 7 6 4 3 3 3 4 4 6 7 8 8 5 4 5 8 9 11 12 12 9 4 1 1 2 2 2 0 3 7 9 10 9 7 5 3 2 2 2 2 2 2 2 2 2 2 2 1 1 1 1 1 1 1 2 2 1 1 2 1 1 1 1
3 2 1 1 1 1 1 2 3 4 4 5 5 6 6 6 7 7 7 6 6 6 7 7 6 5 3 3 3 2 2 5 7 8 7 4 4 5 7 7 9 10 11 8 5 2 2 2 1 1 3 7 10 11 10 9 8 6 4 3 3 3 3 3 3 3 3 3 3 3 2 2 1 1 1 1 2 2 2 2 1 1 1 1 1 1
4 3 1 1 1 1 2 3 4 5 5 6 6 6 6 6 7 6 6 6 6 6 6 6 6 5 4 4 3 2 1 3 5 7 8 5 4 5 6 6 6 7 8 7 5 2 1 3 3 5 9 13 14 12 10 9 9 9 7 6 5 4 3 3 3 3 4 4 4 3 3 2 2 2 2 2 3 3 3 2 1 2 2 2 2 2
3 2 1 1 2 3 4 5 5 6 7 7 7 7 7 6 6 6 6 6 6 5 5 5 5 5 5 4 3 3 2 3 4 6 6 5 4 4 5 5 5 5 6 6 5 3 2 3 6 10 14 17 15 13 10 10 10 11 10 9 7 5 4 3 3 3 4 4 4 4 4 3 3 3 3 3 3 3 3 2 2 2 2 3 3 3
2 1 2 3 4 5 6 6 7 7 8 8 8 7 7 6 6 6 6 5 5 5 5 5 4 4 4 3 3 3 2 2 3 4 5 5 4 4 4 4 4 5 5 5 4 4 4 5 7 11 13 15 14 11 10 11 12 13 12 11 10 7 5 4 3 3 4 4 4 4 5 5 4 4 4 3 3 3 3 3 3 3 3 4 4 4
2 4 5 6 6 7 7 7 8 8 8 8 7 7 7 6 6 6 6 5 5 5 4 4 4 3 3 2 2 1 1 2 2 3 4 5 5 5 4 4 4 5 5 5 5 5 5 7 9 10 11 12 11 10 9 11 13 14 14 12 10 8 7 6 5 4 4 4 4 5 5 5 5 4 3 3 3 3 3 3 3 4 4 5 5 6
4 6 6 6 7 7 7 7 7 7 7 7 7 7 7 6 6 6 6 6 5 5 4 4 4 3 3 2 2 1 2 2 3 3 3 4 5 5 4 4 5 6 6 6 7 7 7 8 9 10 10 10 9 8 10 13 15 15 15 14 11 9 8 7 7 5 4 4 5 5 5 5 4 3 3 3 3 3 4 4 5 5 6 6 7 7
4 4 5 5 6 6 6 7 7 7 7 7 7 7 7 7 7 6 6 6 5 4 4 4 3 3 3 3 3 3 3 3 3 3 4 4 4 4 4 4 5 6 6 7 7 8 8 9 9 10 10 8 8 9 12 15 16 17 17 16 13 10 8 8 7 6 5 5 5 5 5 5 4 4 4 3 3 3 4 5 6 6 7 7 8 8
3 3 3 3 4 5 5 6 6 7 7 7 7 7 7 7 6 6 6 5 5 4 3 3 3 3 3 3 3 3 3 3 3 3 3 3 4 3 3 4 5 5 6 6 7 7 8 8 7 7 8 9 10 11 13 15 16 17 18 17 14 11 10 9 8 7 6 6 6 6 6 6 5 5 4 4 3 3 4 5 6 7 8 7 8 8
2 2 2 2 3 4 5 5 6 6 6 7 7 7 6 6 6 6 5 5 4 4 3 3 3 3 3 3 3 3 3 3 3 3 3 3 3 3 4 4 5 5 6 6 6 7 7 7 7 7 8 10 12 13 14 14 15 16 18 18 16 13 11 10 9 8 7 7 7 7 7 6 6 6 5 5 5 5 6 7 8 9 9 9 9 8
2 1 1 2 2 3 4 5 5 6 6 6 7 6 6 6 6 5 5 4 4 3 3 3 3 3 3 4 3 3 3 2 2 2 2 3 4 4 4 4 5 5 5 6 6 6 7 7 8 9 9 10 12 13 14 14 14 14 15 15 14 14 14 12 10 9 8 9 9 8 8 7 6 6 6 6 7 8 9 9 10 10 11 11 11 11
1 1 1 1 2 3 3 4 5 6 6 7 7 6 6 6 7 7 6 6 5 5 4 4 4 4 4 4 3 3 2 1 1 2 3 3 4 4 4 4 5 5 5 6 6 6 7 8 9 10 11 11 13 14 14 14 13 13 13 13 14 16 17 13 11 10 10 10 10 9 9 8 8 7 7 7 8 9 9 10 11 11 11 11 12 12
1 1 1 2 2 3 4 5 5 6 6 6 7 7 7 7 7 8 8 8 7 7 7 6 6 6 5 5 4 3 1 1 1 2 3 3 3 3 3 4 5 5 6 6 6 7 8 8 9 10 11 12 12 13 13 14 13 13 12 13 15 17 17 13 10 10 12 12 11 11 11 10 10 9 9 9 9 9 10 11 11 12 12 12 12 12
2 2 3 3 4 4 5 5 6 6 6 6 6 7 7 7 8 8 8 8 7 7 7 7 7 7 7 6 6 6 5 3 3 3 4 4 4 4 4 5 5 6 6 7 8 8 9 9 10 11 12 12 12 13 14 14 15 14 14 13 13 13 11 13 14 13 13 12 12 11 12 12 12 11 11 11 11 11 11 12 12 12 13 13 13 12
5 5 5 5 6 6 6 6 6 6 7 6 6 7 7 7 7 8 7 7 7 6 7 7 7 7 7 7 7 7 7 6 6 6 6 6 6 6 6 6 6 7 7 8 9 10 10 11 11 12 12 12 13 14 15 15 15 15 14 14 13 12 12 15 17 17 15 13 12 12 12 13 13 13 13 12 12 13 13 14 14 14 14 13 13 13
6 6 6 6 6 6 6 6 6 6 6 6 6 6 7 7 7 7 7 6 6 6 6 7 7 7 7 7 7 8 8 8 8 8 7 7 7 6 6 6 6 6 7 7 8 9 11 12 13 13 14 14 15 16 16 16 16 16 16 16 16 16 17 18 18 18 17 15 13 12 13 14 15 15 15 15 15 15 16 16 16 16 15 15 14 13
5 5 6 6 6 6 5 5 5 6 6 6 6 7 7 7 6 6 6 6 6 6 6 7 7 7 7 7 8 9 9 10 10 10 9 8 7 6 5 5 5 6 6 7 7 8 10 12 13 15 16 16 17 17 17 17 16 17 18 18 18 18 18 18 16 15 14 14 14 13 14 14 15 16 17 18 18 19 19 18 18 17 17 16 15 14
5 5 5 5 5 5 5 5 5 5 5 6 6 7 7 6 5 5 5 5 5 6 7 7 7 7 7 8 8 9 9 10 11 11 10 8 7 6 5 5 5 5 6 7 8 9 10 11 12 14 15 16 16 16 17 18 18 18 19 18 18 18 18 17 15 13 13 13 14 14 14 15 16 17 18 19 20 20 20 20 19 17 16 15 14 14
5 5 5 5 5 5 5 5 5 5 6 6 6 6 6 5 4 4 5 5 5 6 7 7 7 7 7 8 8 8 8 9 9 10 10 9 8 7 6 5 5 6 7 8 9 10 10 11 11 13 14 15 15 16 18 19 19 18 18 17 17 18 18 17 15 13 13 13 14 14 14 15 16 17 18 19 19 19 19 19 18 17 15 14 14 14
5 5 5 5 5 5 5 5 6 6 6 6 6 5 5 4 4 5 5 5 6 6 7 7 7 7 7 8 8 8 7 8 8 8 8 8 8 8 8 7 7 7 8 9 9 10 10 10 11 11 12 13 15 17 18 18 17 16 16 16 16 17 17 16 15 14 14 14 14 14 14 15 16 16 17 17 17 17 18 18 17 16 15 14 14 14
5 5 5 5 5 5 6 6 6 6 5 5 5 5 5 5 5 5 5 6 6 6 7 7 7 8 8 8 8 8 8 8 8 8 8 8 9 9 10 10 10 10 11 11 10 10 10 10 10 10 9 10 12 14 16 16 15 15 15 15 15 16 16 16 16 15 15 15 15 15 15 16 16 16 16 15 15 16 17 16 16 15 15 15 15 15
5 5 5 5 5 5 5 5 5 6 6 6 6 6 6 6 6 6 6 7 7 7 7 8 8 9 9 9 9 8 8 9 9 9 9 9 10 11 11 11 12 12 12 10 9 9 9 8 8 9 10 9 9 10 12 13 14 15 15 15 15 15 16 16 16 16 16 16 16 16 16 17 17 16 16 15 14 15 15 16 16 16 16 16 16 17
Wind_Direction
72 72 73 73 69 65 64 66 65 61 59 61 62 63 65 67 68 68 67 67 66 65 62 61 59 57 55 54 53 55 57 59 62 63 63 63 61 60 58 57 57 57 57 58 59 61 64 67 69 71 72 74 77 79 82 84 85 87 88 88 87 88 89 91 92 93 94 94 94 94 94 93 93 93 93 93 93 93 94 95 96 96 95 94 92 91
77 77 75 74 72 68 65 66 65 63 60 60 61 63 64 65 65 67 69 69 70 69 67 65 62 60 57 55 53 53 55 56 58 59 61 62 63 64 64 63 61 60 58 57 57 58 60 62 65 69 71 73 75 77 79 80 82 84 85 86 85 85 87 88 90 91 92 93 93 93 93 93 93 92 92 91 90 89 89 90 91 93 94 94 93 92
77 76 74 75 73 71 67 65 64 64 63 62 63 64 65 65 64 64 65 66 68 69 69 69 67 64 61 58 55 54 54 55 57 58 58 59 60 61 62 63 64 63 62 60 58 57 57 58 61 63 67 69 72 74 76 77 79 80 81 83 84 84 85 86 88 89 91 91 92 92 93 93 94 94 94 94 92 91 90 90 90 90 91 93 94 94
86 80 79 77 75 73 71 67 65 64 63 63 63 64 64 64 63 63 62 62 63 64 65 67 67 66 65 63 60 56 55 55 56 57 59 60 60 60 60 60 60 61 62 62 61 60 59 59 60 61 63 66 68 70 72 74 76 78 79 81 82 84 85 86 87 89 91 91 91 92 92 93 94 94 95 95 95 94 93 92 90 89 90 92 94 96
103 96 90 84 80 76 72 69 66 65 63 62 62 62 63 63 63 61 60 59 58 58 58 59 60 62 63 63 62 60 58 57 57 56 57 59 60 61 61 60 59 59 59 60 60 60 61 61 61 61 62 64 66 68 70 71 72 73 74 75 77 79 81 83 86 88 90 91 91 92 93 93 94 94 95 95 95 95 94 93 92 91 92 93 95 97
117 108 100 92 87 82 76 70 67 66 65 65 64 64 64 64 63 61 59 58 57 57 56 55 54 55 57 58 60 61 61 62 60 58 56 56 57 59 60 61 61 61 60 59 59 59 61 62 62 61 60 61 64 66 69 70 70 69 69 69 70 72 73 76 78 81 83 86 87 89 90 90 91 92 93 94 95 95 95 95 95 95 96 97 98 100
126 117 107 99 92 86 80 74 69 68 71 73 72 70 70 68 67 66 64 63 61 60 58 56 54 53 53 53 54 56 59 61 62 61 59 56 55 55 56 58 61 62 63 62 60 59 59 60 61 61 60 60 60 61 65 68 70 70 70 70 71 71 73 74 76 78 80 83 85 87 88 89 90 91 92 93 94 95 96 97 97 98 99 100 101 102
136 127 117 109 99 91 84 79 72 69 72 77 77 75 74 74 74 73 72 70 67 64 62 59 57 56 55 54 54 54 55 57 59 61 61 60 58 57 56 56 57 60 63 65 64 62 61 59 59 60 60 59 58 57 59 63 67 71 73 75 76 77 80 81 82 84 86 88 91 93 94 94 95 95 95 95 96 97 99 101 102 103 103 104 104 104
143 138 126 116 108 99 89 82 76 73 74 79 82 80 75 72 72 73 74 73 70 68 66 63 61 59 59 59 58 58 58 60 61 62 63 63 63 63 61 60 59 59 61 63 65 65 64 62 61 60 59 59 57 56 56 58 61 66 70 72 75 79 83 85 88 91 94 95 96 98 98 98 98 99 100 101 102 104 105 107 108 109 111 110 110 110
138 136 129 117 109 103 97 89 86 84 85 88 92 94 90 79 70 66 66 66 67 68 68 68 68 68 66 67 67 66 66 68 70 71 71 71 71 70 70 69 67 65 63 62 63 64 65 65 63 61 58 56 55 55 54 55 57 60 62 66 70 75 81 84 87 91 93 94 95 94 94 94 94 96 98 101 105 107 109 110 110 110 111 110 110 110
136 131 127 124 116 108 106 106 105 104 101 100 104 109 109 103 90 75 64 61 63 65 66 69 72 74 74 75 76 76 76 77 79 81 82 83 84 83 83 82 81 78 74 71 68 66 66 66 65 63 61 58 57 56 55 55 55 57 59 62 67 72 75 79 82 84 88 89 90 89 87 86 85 86 89 93 98 103 107 109 110 109 108 107 106 106
143 138 135 137 133 123 117 120 121 119 116 113 109 108 113 115 109 99 86 76 69 66 65 67 72 77 80 81 84 87 87 89 90 91 91 92 94 94 94 94 94 93 91 88 83 77 73 72 71 71 70 69 67 66 65 63 62 61 60 62 65 68 71 74 77 80 83 86 87 87 84 83 82 81 81 84 88 93 98 103 107 109 110 109 109 109
145 141 136 134 128 121 116 118 119 118 116 114 107 103 108 119 117 110 102 94 83 75 69 67 70 77 84 88 91 92 93 96 99 100 99 98 97 97 97 98 99 99 99 98 97 94 91 88 85 84 84 84 84 83 81 79 76 75 72 71 71 71 72 73 76 78 80 82 84 84 83 84 84 84 85 87 91 95 100 106 111 116 119 120 121 123
143 138 131 121 114 110 108 107 103 101 103 107 110 114 121 126 123 115 109 103 93 85 78 71 69 73 83 89 93 95 97 98 101 102 101 98 97 97 96 96 97 97 98 97 96 96 98 98 98 98 98 100 100 99 98 97 97 97 96 95 94 91 87 87 86 84 83 83 83 84 86 88 89 92 95 99 102 106 111 115 121 124 128 131 133 134
146 142 134 123 116 111 107 103 99 97 103 110 118 126 131 133 130 127 126 129 116 100 89 78 72 72 78 85 91 95 98 99 98 97 96 96 96 96 95 94 93 94 93 92 91 90 92 94 96 98 102 105 107 109 110 112 114 114 113 112 110 107 103 100 97 95 93 91 89 90 92 94 96 100 104 107 110 112 115 117 120 123 127 131 135 139
150 144 138 131 125 120 113 107 103 101 104 111 120 129 135 137 137 136 134 146 164 170 151 119 86 73 70 79 89 95 96 95 94 93 92 92 94 96 95 93 91 90 89 88 88 87 86 86 88 91 95 99 105 109 112 115 117 118 118 116 114 111 108 106 104 102 100 98 96 95 95 97 100 103 106 109 111 112 112 111 110 111 114 120 128 136
150 144 138 132 128 123 117 110 106 103 102 104 108 113 115 115 117 116 108 108 117 128 124 107 88 71 60 68 80 91 95 93 91 91 90 88 90 93 94 92 91 90 87 87 87 86 85 83 83 86 90 94 99 104 108 110 113 115 116 115 114 113 111 110 109 108 106 105 103 102 103 104 105 107 108 110 109 108 106 102 98 97 100 107 118 128
153 147 140 134 131 127 121 114 108 104 101 98 96 96 96 96 96 94 91 93 93 91 88 82 79 70 39 27 43 75 98 100 98 94 88 85 87 90 91 91 90 90 89 89 88 88 86 83 79 79 86 90 94 98 102 106 108 111 113 113 113 113 112 112 111 110 110 110 110 111 113 115 116 116 113 110 105 100 94 88 84 85 92 102 115 126
155 150 142 137 132 127 122 115 108 103 99 96 94 93 92 91 89 88 88 89 93 96 96 93 89 81 66 30 42 80 102 110 108 99 87 81 84 89 90 91 91 91 91 90 91 91 90 86 79 75 78 84 88 91 96 100 104 107 110 111 112 112 111 111 110 111 112 113 117 120 124 128 129 126 120 112 101 90 81 75 75 84 98 112 123 132
154 147 140 134 129 123 116 107 98 92 91 89 91 93 94 91 89 88 88 90 95 99 102 102 102 96 79 57 62 86 108 117 116 104 88 80 82 85 87 88 90 92 92 92 93 94 95 91 85 76 70 73 78 82 86 90 95 100 104 107 108 109 108 107 107 108 112 116 122 129 137 145 148 148 144 127 111 101 94 93 100 109 117 127 135 141
151 143 139 134 129 122 113 104 95 87 82 80 84 90 91 91 89 89 90 94 99 102 104 103 102 97 85 69 63 71 94 113 124 123 104 84 79 81 84 84 86 90 92 94 96 99 100 98 92 81 66 64 68 74 75 76 78 82 88 92 94 95 96 97 100 102 109 117 125 138 159 176 189 190 183 153 133 129 127 122 123 126 133 141 147 152
144 135 133 131 127 120 115 107 99 88 78 72 76 82 83 87 89 90 91 96 102 105 105 104 102 97 91 76 67 64 70 79 114 144 143 106 74 73 83 80 81 84 88 92 97 104 109 108 103 93 78 68 67 71 73 70 67 65 63 64 66 69 75 78 85 93 100 106 110 114 123 127 131 132 137 134 132 131 135 135 138 142 148 157 165 171
131 125 124 123 120 116 112 106 97 84 71 62 61 62 64 72 81 86 89 94 101 106 106 105 104 101 96 84 75 70 65 60 81 142 152 130 77 65 78 74 73 75 76 80 89 105 123 129 124 115 103 88 77 73 76 74 69 62 57 53 53 55 61 68 80 89 101 105 110 109 106 107 115 124 130 132 135 139 143 148 152 155 160 172 184 191
114 114 114 112 110 106 102 94 83 69 60 55 53 53 54 57 63 71 77 83 92 102 108 111 111 107 97 86 77 70 67 61 62 102 140 122 88 62 54 50 52 55 57 58 67 102 145 152 152 146 134 117 97 81 78 75 71 65 59 56 55 56 56 64 79 98 114 120 122 120 117 118 127 136 140 140 143 147 155 160 164 169 176 191 204 211
97 97 96 94 91 85 79 72 65 61 58 56 55 54 51 50 54 61 69 77 88 107 127 134 122 99 83 75 67 62 57 57 59 72 114 111 81 52 30 22 21 24 27 28 34 113 167 166 164 162 155 136 107 80 64 57 55 57 59 59 57 53 49 50 57 81 120 139 138 135 136 135 141 150 153 155 155 159 166 171 175 184 201 216 227 235
90 86 83 81 77 71 65 62 63 63 63 61 60 56 51 44 44 57 71 73 81 115 163 158 114 78 73 65 58 53 50 50 52 57 68 98 81 45 20 10 6 5 4 3 1 183 179 174 170 166 157 132 88 54 35 25 26 37 51 55 51 43 37 34 31 29 45 127 142 143 144 143 148 158 166 170 171 177 181 187 194 211 229 243 251 258
95 97 97 97 93 86 78 74 73 72 70 67 64 59 53 40 34 57 62 60 63 83 124 116 99 80 75 68 58 49 45 44 44 43 43 58 69 39 15 5 0 358 357 354 346 206 183 178 175 170 153 110 55 29 15 7 6 13 29 39 38 32 26 23 21 22 36 77 107 121 127 121 126 144 165 177 182 185 195 210 229 243 254 261 268 270
91 102 110 113 111 107 102 94 87 80 74 67 62 56 50 44 61 70 65 59 59 74 91 94 94 87 76 74 62 50 43 39 36 32 28 31 50 36 13 3 359 357 357 353 345 218 183 180 179 174 154 74 27 12 2 358 358 358 358 9 20 23 21 21 24 35 53 74 87 95 102 98 100 115 139 157 161 149 132 275 271 268 270 272 271 267
63 78 95 104 108 111 110 101 90 77 67 60 53 48 44 47 64 73 71 66 69 80 87 86 89 94 97 98 84 64 47 38 30 23 17 25 44 30 11 5 2 1 360 353 344 183 171 181 183 179 148 16 2 357 353 352 352 351 351 359 8 15 19 25 36 55 77 86 86 88 93 100 111 120 130 138 136 116 98 23 304 287 282 278 271 263
29 53 95 98 95 89 85 80 75 71 64 58 52 49 46 48 60 69 70 68 72 82 87 88 86 88 102 116 92 64 42 33 25 18 15 32 48 30 13 11 9 7 6 360 353 343 172 189 188 184 326 343 343 346 348 350 351 351 354 2 5 10 18 31 49 68 86 92 90 87 89 99 115 131 141 146 135 121 102 58 342 307 292 286 279 279
346 337 342 30 55 68 80 80 79 78 76 70 65 61 57 57 61 65 67 66 67 73 84 87 86 82 83 97 93 66 11 18 18 15 13 37 48 29 18 17 16 15 13 14 15 5 313 295 259 240 313 327 334 340 347 352 355 356 357 359 4 11 23 41 59 74 85 89 88 84 85 93 104 123 143 150 138 125 106 73 21 331 312 315 323 329
337 332 337 6 77 109 110 102 97 93 89 85 79 74 69 67 65 65 64 61 59 62 71 78 80 78 75 83 105 135 57 17 15 14 13 29 35 22 18 19 19 18 17 21 23 16 315 311 315 317 318 325 333 342 352 358 360 359 359 358 4 14 31 49 70 81 88 88 86 85 85 88 94 109 129 142 138 126 109 82 42 3 341 344 359 10
344 350 34 109 124 124 117 110 104 100 95 91 86 81 78 74 70 66 61 57 54 53 57 64 70 74 77 81 96 103 69 33 19 14 11 15 19 15 10 11 13 12 13 15 11 356 317 307 311 315 319 326 335 345 355 359 359 359 358 359 3 13 32 56 73 82 88 92 94 96 98 97 98 103 116 127 129 120 106 83 57 29 13 5 9 14
10 74 106 117 119 116 112 106 102 97 93 89 84 80 76 72 68 64 60 56 50 47 46 48 54 64 74 87 93 90 61 30 19 11 2 359 360 360 355 358 2 3 3 1 357 344 321 309 310 314 318 325 333 342 351 354 354 354 356 357 360 7 21 39 55 67 83 94 102 107 112 109 106 105 108 113 112 104 88 69 53 39 30 20 13 7
84 102 105 106 105 101 97 93 89 85 82 78 74 69 65 61 57 53 50 46 43 39 35 31 31 34 42 61 81 79 40 4 358 353 345 342 342 343 341 344 351 356 356 354 352 346 331 319 316 318 320 323 327 334 343 346 346 347 350 353 358 5 13 20 27 42 66 87 100 108 113 110 105 98 95 92 87 74 59 44 36 33 30 24 17 8
102 99 94 91 87 83 79 75 71 68 66 63 58 53 48 45 41 38 35 32 30 28 27 24 20 15 11 8 7 3 345 333 329 325 322 323 327 330 333 337 344 348 349 348 347 342 331 323 320 322 324 323 322 325 332 337 339 340 343 348 355 3 11 13 15 23 44 68 83 91 96 95 86 75 70 68 61 51 38 29 24 23 21 19 15 9
113 100 86 76 68 64 61 58 54 51 48 46 41 35 31 29 26 24 22 20 19 19 19 19 18 16 11 0 352 342 332 324 317 311 311 313 318 324 331 334 338 339 340 339 337 334 328 324 323 325 327 325 322 322 326 330 333 335 338 342 348 355 2 7 10 16 28 47 57 61 62 59 53 45 46 48 46 39 31 24 19 16 12 9 6 3
125 106 80 59 47 42 40 39 36 34 31 28 24 20 16 13 13 12 11 10 8 8 9 9 9 8 5 359 351 340 330 321 314 311 314 317 320 325 330 332 332 329 329 327 325 324 323 322 323 325 325 323 320 320 322 327 330 332 333 337 341 346 350 357 4 12 20 30 36 37 34 31 29 29 32 33 30 25 23 21 17 11 6 359 355 353
129 104 71 38 23 17 17 18 17 16 12 9 5 2 0 359 358 358 358 358 355 353 352 355 356 355 350 344 336 327 320 313 312 316 321 327 330 329 328 328 324 321 318 317 317 317 317 316 316 317 319 319 318 318 320 324 327 329 331 333 335 337 342 350 357 5 12 14 15 16 17 17 15 15 19 18 14 11 11 10 8 4 359 351 345 340
126 107 62 19 2 355 355 356 356 355 353 351 347 345 345 346 346 344 342 341 338 337 337 336 336 337 336 331 324 315 305 299 305 321 333 338 337 331 324 322 318 315 313 312 312 313 315 314 311 309 309 311 313 314 316 318 322 326 329 330 328 327 333 341 350 356 1 1 1 1 2 4 4 6 10 12 12 9 4 0 357 355 351 346 341 336
104 85 42 358 339 333 332 332 333 334 334 334 335 336 338 340 341 339 336 333 332 330 327 325 324 324 325 325 324 318 297 277 314 343 345 342 337 330 321 316 312 310 308 308 308 308 309 309 308 306 305 305 306 307 308 310 314 319 322 320 316 316 322 330 340 345 347 349 350 351 351 353 356 359 1 4 5 3 358 352 348 346 345 342 339 335
42 12 346 333 327 323 321 319 317 317 318 322 328 333 337 339 341 341 340 341 343 344 344 341 340 341 343 344 348 354 5 21 358 347 341 332 322 314 308 306 303 303 306 307 308 308 307 306 305 304 303 305 305 304 303 304 307 310 311 310 311 314 317 324 334 339 337 340 343 346 348 348 350 352 352 352 352 350 348 345 342 340 339 337 335 332
307 308 309 309 309 308 307 307 308 310 313 319 325 329 333 336 338 339 341 345 349 350 351 351 350 350 354 359 4 9 16 17 2 343 327 311 298 295 297 299 302 305 308 311 312 312 310 308 306 304 304 305 303 300 299 301 304 305 304 304 308 312 312 315 323 331 333 336 341 345 346 345 344 343 342 340 339 338 337 336 335 334 332 330 328 325
288 290 292 293 294 295 296 298 302 306 310 316 320 323 326 329 331 334 337 342 345 345 346 348 350 352 357 360 1 1 1 359 353 343 331 316 305 300 300 300 302 304 307 311 312 312 313 311 307 305 305 304 300 296 295 297 300 301 301 301 301 298 294 303 313 321 326 332 337 341 342 340 339 336 334 333 331 330 330 329 328 327 326 325 323 320
280 280 282 283 285 287 290 295 299 304 310 313 315 318 320 322 325 329 334 338 340 340 341 345 349 352 355 352 350 349 348 346 344 343 342 339 332 326 318 312 309 309 309 310 311 311 311 309 307 307 308 304 298 293 291 292 294 296 296 299 300 299 299 302 308 314 319 325 332 336 339 338 335 332 331 330 329 327 325 325 324 323 323 322 320 317
274 273 274 276 278 279 281 288 296 301 305 308 310 313 315 318 322 326 331 335 337 337 338 342 346 349 348 344 343 344 344 343 343 346 352 356 358 356 350 340 332 325 320 314 311 309 307 306 306 307 306 302 297 293 290 289 290 290 293 298 302 303 305 307 310 315 319 323 328 333 336 335 332 330 329 328 326 324 321 321 321 321 321 320 318 315
268 268 269 270 270 271 275 283 291 298 303 306 308 310 313 317 321 326 329 332 333 335 336 339 341 342 341 339 339 340 340 341 343 347 352 359 5 5 1 354 344 333 322 315 311 308 306 305 304 303 301 297 294 291 291 290 289 289 292 298 302 303 304 308 314 321 323 324 327 331 334 331 328 326 325 323 321 319 317 317 318 318 318 318 315 311
268 267 266 266 267 269 277 285 294 302 308 310 311 313 316 321 326 327 328 329 330 331 332 335 336 336 335 335 336 337 338 339 341 344 348 352 356 358 355 349 339 327 318 313 310 308 306 302 298 293 290 287 283 283 287 291 293 295 296 299 300 300 302 308 317 324 326 326 328 330 329 326 324 322 321 318 316 313 312 313 314 315 315 314 311 307
274 271 271 271 272 276 284 291 298 304 308 310 311 314 319 327 330 329 327 326 326 326 326 327 327 326 326 328 332 335 334 335 337 339 341 341 342 343 342 339 333 327 321 319 317 315 311 305 298 291 284 280 276 276 282 289 295 299 300 299 298 298 300 308 316 323 324 325 326 326 324 322 320 319 316 311 308 307 307 307 308 309 310 309 306 303
281 280 281 282 284 288 292 297 301 303 301 301 302 305 311 318 324 326 324 322 321 320 319 319 317 315 314 317 323 326 325 324 324 327 330 330 330 331 331 331 330 327 325 325 326 325 322 317 311 303 294 288 282 279 280 287 294 299 299 299 300 300 301 306 312 319 321 321 322 321 319 317 316 315 311 305 301 301 301 302 303 304 305 306 305 303
288 288 288 289 290 292 294 296 296 295 294 296 298 301 305 310 315 318 318 316 315 314 314 314 313 311 308 310 313 315 316 316 316 318 323 326 328 328 328 328 326 324 322 321 320 319 321 321 320 315 310 305 299 292 287 288 291 294 295 298 301 303 302 304 309 314 316 317 316 315 314 312 311 309 305 299 296 296 298 298 300 301 304 305 304 302